Weather History for Northeast Philadelphia, PA

Change the Weather History Date:

Wednesday, July 31, 2013

  Actual Average Record
Temperature  
Mean Temperature 71 °F -  
Max Temperature 82 °F 83 °F 97 °F (1999)
Min Temperature 62 °F 65 °F 59 °F (2001)
Cooling Degree Days 6    
Growing Degree Days 21 (Base 50)    
Moisture  
Dew Point 60 °F    
Average Humidity 67    
Maximum Humidity 90    
Minimum Humidity 45    
Precipitation  
Precipitation 0.00 in - - ()
Sea Level Pressure  
Sea Level Pressure 30.12 in    
Wind  
Wind Speed 2 mph (SSE)    
Max Wind Speed 8 mph    
Max Gust Speed -    
Visibility 10 miles    
Events      
Averages and records for this station are not official NWS values.
T = Trace of Precipitation, MM = Missing Value Source: NWS Daily Summary

Daily Weather History Graph

Daily Weather History Graph

Search for Another Location

Airport:

Trip Planner

Search our weather history database for the weather conditions in past years. The results will help you decide how hot, cold, wet, or windy it might be!

Date:

Astronomy

Jul. 31, 2013 Rise Set
Actual Time 5:57 AM EDT 8:14 PM EDT
Civil Twilight 5:27 AM EDT 8:45 PM EDT
Nautical Twilight 4:49 AM EDT 9:22 PM EDT
Astronomical Twilight 4:08 AM EDT 10:03 PM EDT
Moon 12:51 AM EDT (7/31) 3:28 PM EDT (7/31)
Length of Visible Light 15h 17m
Length of Day
14h 17m
Waning Crescent, 32% of the Moon is Illuminated
Jul 31
Waning Crescent
Aug 6
New
Aug 14
First Quarter
Aug 20
Full
Aug 28
Last Quarter

Hourly Weather History & Observations

Time (EDT) Temp. Heat Index Dew Point Humidity Pressure Visibility Wind Dir Wind Speed Gust Speed Precip Events Conditions
12:54 AM 66.0 °F - 59.0 °F 78% 30.16 in 10.0 mi Calm Calm - N/A   Clear
1:54 AM 64.9 °F - 59.0 °F 81% 30.16 in 10.0 mi Calm Calm - N/A   Clear
2:54 AM 64.9 °F - 59.0 °F 81% 30.16 in 10.0 mi Calm Calm - N/A   Clear
3:54 AM 63.0 °F - 59.0 °F 87% 30.15 in 10.0 mi Calm Calm - N/A   Clear
4:54 AM 62.1 °F - 59.0 °F 90% 30.16 in 10.0 mi WSW 3.5 mph - N/A   Clear
5:54 AM 62.1 °F - 59.0 °F 90% 30.17 in 10.0 mi Calm Calm - N/A   Clear
6:54 AM 63.0 °F - 59.0 °F 87% 30.18 in 10.0 mi Calm Calm - N/A   Clear
7:54 AM 68.0 °F - 61.0 °F 78% 30.18 in 10.0 mi Calm Calm - N/A   Clear
8:54 AM 73.9 °F - 61.0 °F 64% 30.17 in 10.0 mi Calm Calm - N/A   Clear
9:54 AM 75.0 °F - 59.0 °F 57% 30.17 in 10.0 mi Calm Calm - N/A   Clear
10:54 AM 77.0 °F - 57.9 °F 52% 30.17 in 10.0 mi SE 3.5 mph - N/A   Clear
11:54 AM 79.0 °F - 60.1 °F 52% 30.16 in 10.0 mi Variable 5.8 mph - N/A   Clear
12:54 PM 80.1 °F 80.6 °F 57.9 °F 47% 30.13 in 10.0 mi ESE 3.5 mph - N/A   Mostly Cloudy
1:54 PM 80.1 °F 80.4 °F 57.0 °F 45% 30.12 in 10.0 mi Calm Calm - N/A   Scattered Clouds
2:54 PM 80.1 °F 80.7 °F 59.0 °F 48% 30.11 in 10.0 mi SE 8.1 mph - N/A   Scattered Clouds
3:54 PM 80.1 °F 80.9 °F 60.1 °F 50% 30.09 in 10.0 mi SE 5.8 mph - N/A   Partly Cloudy
4:54 PM 79.0 °F - 61.0 °F 54% 30.09 in 10.0 mi SE 6.9 mph - N/A   Scattered Clouds
5:54 PM 80.1 °F 81.2 °F 62.1 °F 54% 30.07 in 10.0 mi Calm Calm - N/A   Clear
6:54 PM 79.0 °F - 60.1 °F 52% 30.06 in 10.0 mi South 3.5 mph - N/A   Mostly Cloudy
7:54 PM 75.9 °F - 66.0 °F 71% 30.06 in 10.0 mi Variable 5.8 mph - N/A   Mostly Cloudy
8:54 PM 75.0 °F - 63.0 °F 66% 30.06 in 10.0 mi Variable 3.5 mph - N/A   Scattered Clouds
9:54 PM 73.9 °F - 63.0 °F 68% 30.07 in 10.0 mi South 5.8 mph - N/A   Scattered Clouds
10:54 PM 73.0 °F - 64.0 °F 73% 30.06 in 10.0 mi Variable 3.5 mph - N/A   Overcast
11:54 PM 73.0 °F - 64.0 °F 73% 30.06 in 10.0 mi South 3.5 mph - N/A   Overcast